FDX13 KASE-KLAX

Flight info

Callsign FDX13
Flight time N/A
Altitude 32000
Route GLENO V591 JNC V8 GFS V538 TNP
Aircraft B737/M-VGDW/C

Departure

Time N/A
Airport Aspen-Pitkin County Airport (Sardy Field) (KASE)

Arrival

Time 2026-05-05 13:40
Airport Los Angeles International Airport (KLAX)
Time Latitude Longitude Altitude Speed Heading
2026-05-05 13:38 33.96058 -118.29938 1836 ft 166 kts 263°
2026-05-05 13:38 33.95917 -118.31314 1614 ft 164 kts 263°
2026-05-05 13:38 33.95779 -118.32674 1391 ft 163 kts 263°
2026-05-05 13:38 33.95645 -118.33983 1166 ft 149 kts 263°
2026-05-05 13:39 33.95530 -118.35110 967 ft 125 kts 263°
2026-05-05 13:39 33.95425 -118.36142 807 ft 122 kts 263°
2026-05-05 13:39 33.95324 -118.37151 646 ft 120 kts 263°
2026-05-05 13:39 33.95225 -118.38129 484 ft 117 kts 262°
2026-05-05 13:40 33.95124 -118.39105 329 ft 116 kts 262°
2026-05-05 13:40 33.95031 -118.40051 171 ft 115 kts 262°
2026-05-05 13:40 33.94933 -118.40977 125 ft 98 kts 262°
2026-05-05 13:40 33.94881 -118.41490 124 ft 28 kts 261°
2026-05-05 13:41 33.94894 -118.41618 121 ft 12 kts 316°
2026-05-05 13:41 33.94957 -118.41686 127 ft 10 kts 310°
2026-05-05 13:41 33.94998 -118.41761 123 ft 12 kts 296°
2026-05-05 13:41 33.94987 -118.41849 122 ft 11 kts 238°
2026-05-05 13:42 33.94937 -118.41927 124 ft 12 kts 234°
2026-05-05 13:42 33.94873 -118.42036 122 ft 35 kts 232°
2026-05-05 13:42 33.94720 -118.42270 124 ft 23 kts 245°
2026-05-05 13:42 33.94618 -118.42361 124 ft 17 kts 163°
2026-05-05 13:43 33.94529 -118.42341 124 ft 8 kts 142°
2026-05-05 13:43 33.94503 -118.42315 125 ft 10 kts 145°
2026-05-05 13:43 33.94491 -118.42297 123 ft 0 kts 118°